Home > Weather > Plymouth > Past weeks

Flag for United Kingdom Past Weather in Plymouth, England, United Kingdom — Yesterday and Last 2 Weeks

Now
52 °F

Fog.


Feels Like: 52 °F
Forecast: 51 / 68 °F
Wind: No wind

Location: Exeter Airport

Current Time: May 28, 2016 at 1:05:41 AM

Latest Report: May 28, 2016 at 12:20 AM


Visibility: 0 mi

Pressure: 30.01 "Hg

Humidity: 94%

Dew Point: 50 °F

Location of PlymouthLocation

Past Weather in Plymouth — Graph

°F

Plymouth Temperature Yesterday

Maximum temperature yesterday: 64 °F (at 5:50 PM)
Minimum temperature yesterday: 52 °F (at 1:20 AM)
Average temperature yesterday: 57 °F

High & Low Weather Summary for the Past Weeks

 TemperatureHumidityPressure
High68 °F (May 13, 3:50 PM)100% (May 13, 12:20 AM)30.24 "Hg (May 13, 12:20 AM)
Low37 °F (May 15, 6:20 AM)45% (May 15, 4:50 PM)29.59 "Hg (May 18, 9:20 AM)
Average55 °F79%29.97 "Hg
* Reported May 12 11:20 PM — May 27 11:50 PM, Plymouth, Weather by CustomWeather, © 2016

Note: Actual official high and low records may vary slightly from our data, if they occured in-between our weather recording intervals... More about our weather records

Advertising

Plymouth Weather History for the Previous 24 Hours

Scroll right to see more
 ConditionsComfort  
Time TempWeatherWind HumidityBarometerVisibility
11:50 PM
Fri, May 27
52 °FFog.No wind94%30.01 "Hg1 mi
11:20 PM52 °FFog.No wind100%30.01 "Hg2 mi
10:50 PM52 °FFog.2 mph100%30.01 "Hg2 mi
10:20 PM52 °FFog.3 mph94%30.01 "Hg2 mi
9:50 PM52 °FFog.3 mph94%30.01 "Hg2 mi
9:20 PM54 °FFog.3 mph94%30.01 "Hg2 mi
8:50 PM55 °FClear.5 mph88%30.01 "Hg5 mi
8:20 PM59 °FClear.6 mph82%30.01 "Hg6 mi
7:50 PM61 °FClear.7 mph77%29.98 "Hg5 mi
7:20 PM63 °FPassing clouds.6 mph73%29.98 "Hg5 mi
6:50 PM63 °FPassing clouds.7 mph73%29.98 "HgN/A
6:20 PM63 °FPassing clouds.7 mph73%29.98 "Hg5 mi
5:50 PM64 °FPassing clouds.7 mph68%29.98 "Hg5 mi
5:20 PM63 °FPassing clouds.10 mph73%29.98 "Hg4 mi
4:50 PM63 °FPassing clouds.8 mph73%29.98 "Hg4 mi
4:20 PM63 °FPassing clouds.9 mph73%29.98 "Hg4 mi
3:50 PM63 °FPassing clouds.9 mph73%30.01 "Hg4 mi
3:20 PM63 °FPassing clouds.10 mph73%30.01 "Hg4 mi
2:50 PM61 °FPassing clouds.8 mph77%30.01 "Hg4 mi
2:20 PM61 °FPassing clouds.7 mph77%30.01 "Hg6 mi
1:50 PM61 °FPassing clouds.8 mph77%30.01 "Hg6 mi
1:20 PM61 °FPartly sunny.10 mph72%30.01 "Hg6 mi
12:50 PM61 °FPartly sunny.10 mph72%30.01 "Hg6 mi
12:20 PM59 °FPartly sunny.9 mph77%30.01 "HgN/A
11:50 AM57 °FPassing clouds.8 mph77%30.01 "HgN/A
11:20 AM57 °FScattered clouds.9 mph77%30.01 "Hg5 mi
10:50 AM59 °FScattered clouds.10 mph77%30.01 "Hg5 mi
10:20 AM59 °FScattered clouds.9 mph77%30.01 "Hg6 mi
9:50 AM61 °FScattered clouds.5 mph77%30.01 "Hg4 mi
9:20 AM59 °FScattered clouds.1 mph82%30.01 "Hg5 mi
8:50 AM59 °FPassing clouds.3 mph82%30.01 "Hg5 mi
8:20 AM57 °FScattered clouds.No wind88%30.01 "Hg5 mi
7:50 AM55 °FScattered clouds.2 mph94%29.98 "Hg5 mi
7:20 AM54 °FSprinkles. Scattered clouds.2 mph94%29.98 "HgN/A
6:50 AM54 °FScattered clouds.No wind94%29.98 "Hg5 mi
6:20 AM54 °FScattered clouds.2 mph94%29.98 "Hg5 mi
5:50 AM52 °FClear.2 mph100%29.98 "Hg5 mi
5:20 AM52 °FClear.3 mph100%29.98 "Hg5 mi
2:50 AM54 °FRain showers. Passing clouds.3 mph94%29.98 "HgN/A
2:20 AM52 °FSprinkles. Passing clouds.3 mph100%29.98 "HgN/A
1:50 AM52 °FSprinkles. Passing clouds.2 mph100%29.98 "HgN/A
1:20 AM52 °FPassing clouds.2 mph100%29.98 "HgN/A
Weather by CustomWeather, © 2016

See weather overviewHow to use our weather pages